Year,Month,Day,Hour,Minute,Value (Times are PST for temperature in C)
2014,01,23,00,00,1.80
2014,01,23,00,01,1.80
2014,01,23,00,02,1.80
2014,01,23,00,03,1.80
2014,01,23,00,04,1.80
2014,01,23,00,05,1.80
2014,01,23,00,06,1.80
2014,01,23,00,07,1.80
2014,01,23,00,08,1.80
2014,01,23,00,09,1.80
2014,01,23,00,10,1.80
2014,01,23,00,11,1.80
2014,01,23,00,12,1.80
2014,01,23,00,13,1.80
2014,01,23,00,14,1.80
2014,01,23,00,15,1.80
2014,01,23,00,16,1.80
2014,01,23,00,17,1.80
2014,01,23,00,18,1.80
2014,01,23,00,19,1.80
2014,01,23,00,20,1.80
2014,01,23,00,21,1.80
2014,01,23,00,22,1.80
2014,01,23,00,23,1.80
2014,01,23,00,24,1.80
2014,01,23,00,25,1.80
2014,01,23,00,26,1.80
2014,01,23,00,27,1.80
2014,01,23,00,28,1.80
2014,01,23,00,29,1.80
2014,01,23,00,30,1.80
2014,01,23,00,31,1.80
2014,01,23,00,32,1.80
2014,01,23,00,33,1.80
2014,01,23,00,34,1.80
2014,01,23,00,35,1.80
2014,01,23,00,36,1.80
2014,01,23,00,37,1.80
2014,01,23,00,38,1.80
2014,01,23,00,39,1.80
2014,01,23,00,40,1.80
2014,01,23,00,41,1.80
2014,01,23,00,42,1.80
2014,01,23,00,43,1.80
2014,01,23,00,44,1.80
2014,01,23,00,45,1.80
2014,01,23,00,46,1.80
2014,01,23,00,47,1.70
2014,01,23,00,48,1.70
2014,01,23,00,49,1.70
2014,01,23,00,50,1.70
2014,01,23,00,51,1.70
2014,01,23,00,52,1.70
2014,01,23,00,53,1.70
2014,01,23,00,54,1.70
2014,01,23,00,55,1.70
2014,01,23,00,56,1.70
2014,01,23,00,57,1.70
2014,01,23,00,58,1.70
2014,01,23,00,59,1.70
2014,01,23,01,00,1.70
2014,01,23,01,01,1.70
2014,01,23,01,02,1.60
2014,01,23,01,03,1.60
2014,01,23,01,04,1.60
2014,01,23,01,05,1.60
2014,01,23,01,06,1.60
2014,01,23,01,07,1.60
2014,01,23,01,08,1.60
2014,01,23,01,09,1.50
2014,01,23,01,10,1.50
2014,01,23,01,11,1.50
2014,01,23,01,12,1.40
2014,01,23,01,13,1.40
2014,01,23,01,14,1.40
2014,01,23,01,15,1.40
2014,01,23,01,16,1.40
2014,01,23,01,17,1.40
2014,01,23,01,18,1.40
2014,01,23,01,19,1.40
2014,01,23,01,20,1.40
2014,01,23,01,21,1.40
2014,01,23,01,22,1.40
2014,01,23,01,23,1.40
2014,01,23,01,24,1.40
2014,01,23,01,25,1.40
2014,01,23,01,26,1.40
2014,01,23,01,27,1.40
2014,01,23,01,28,1.30
2014,01,23,01,29,1.30
2014,01,23,01,30,1.30
2014,01,23,01,31,1.30
2014,01,23,01,32,1.30
2014,01,23,01,33,1.30
2014,01,23,01,34,1.30
2014,01,23,01,35,1.30
2014,01,23,01,36,1.30
2014,01,23,01,37,1.30
2014,01,23,01,38,1.30
2014,01,23,01,39,1.30
2014,01,23,01,40,1.30
2014,01,23,01,41,1.30
2014,01,23,01,42,1.30
2014,01,23,01,43,1.30
2014,01,23,01,44,1.30
2014,01,23,01,45,1.30
2014,01,23,01,46,1.30
2014,01,23,01,47,1.30
2014,01,23,01,48,1.30
2014,01,23,01,49,1.30
2014,01,23,01,50,1.30
2014,01,23,01,51,1.30
2014,01,23,01,52,1.30
2014,01,23,01,53,1.30
2014,01,23,01,54,1.30
2014,01,23,01,55,1.30
2014,01,23,01,56,1.30
2014,01,23,01,57,1.30
2014,01,23,01,58,1.30
2014,01,23,01,59,1.30
2014,01,23,02,00,1.30
2014,01,23,02,01,1.30
2014,01,23,02,02,1.30
2014,01,23,02,03,1.30
2014,01,23,02,04,1.30
2014,01,23,02,05,1.30
2014,01,23,02,06,1.30
2014,01,23,02,07,1.30
2014,01,23,02,08,1.30
2014,01,23,02,09,1.30
2014,01,23,02,10,1.30
2014,01,23,02,11,1.30
2014,01,23,02,12,1.30
2014,01,23,02,13,1.30
2014,01,23,02,14,1.30
2014,01,23,02,15,1.20
2014,01,23,02,16,1.20
2014,01,23,02,17,1.20
2014,01,23,02,18,1.20
2014,01,23,02,19,1.20
2014,01,23,02,20,1.20
2014,01,23,02,21,1.10
2014,01,23,02,22,1.10
2014,01,23,02,23,1.10
2014,01,23,02,24,1.10
2014,01,23,02,25,1.10
2014,01,23,02,26,1.10
2014,01,23,02,27,1.10
2014,01,23,02,28,1.10
2014,01,23,02,29,1.10
2014,01,23,02,30,1.10
2014,01,23,02,31,1.10
2014,01,23,02,32,1.10
2014,01,23,02,33,1.10
2014,01,23,02,34,1.10
2014,01,23,02,35,1.10
2014,01,23,02,36,1.10
2014,01,23,02,37,1.10
2014,01,23,02,38,1.10
2014,01,23,02,39,1.10
2014,01,23,02,40,1.10
2014,01,23,02,41,1.10
2014,01,23,02,42,1.10
2014,01,23,02,43,1.10
2014,01,23,02,44,1.00
2014,01,23,02,45,1.00
2014,01,23,02,46,1.00
2014,01,23,02,47,1.00
2014,01,23,02,48,0.90
2014,01,23,02,49,0.90
2014,01,23,02,50,0.90
2014,01,23,02,51,0.90
2014,01,23,02,52,0.90
2014,01,23,02,53,0.90
2014,01,23,02,54,0.90
2014,01,23,02,55,0.90
2014,01,23,02,56,0.90
2014,01,23,02,57,0.90
2014,01,23,02,58,0.90
2014,01,23,02,59,0.90
2014,01,23,03,00,0.90
2014,01,23,03,01,0.90
2014,01,23,03,02,0.90
2014,01,23,03,03,0.90
2014,01,23,03,04,0.90
2014,01,23,03,05,0.90
2014,01,23,03,06,0.90
2014,01,23,03,07,0.90
2014,01,23,03,08,0.90
2014,01,23,03,09,0.90
2014,01,23,03,10,0.90
2014,01,23,03,11,0.90
2014,01,23,03,12,0.90
2014,01,23,03,13,0.90
2014,01,23,03,14,0.90
2014,01,23,03,15,0.90
2014,01,23,03,16,0.90
2014,01,23,03,17,0.90
2014,01,23,03,18,0.90
2014,01,23,03,19,0.90
2014,01,23,03,20,0.90
2014,01,23,03,21,0.90
2014,01,23,03,22,0.90
2014,01,23,03,23,0.80
2014,01,23,03,24,0.80
2014,01,23,03,25,0.80
2014,01,23,03,26,0.80
2014,01,23,03,27,0.80
2014,01,23,03,28,0.70
2014,01,23,03,29,0.70
2014,01,23,03,30,0.70
2014,01,23,03,31,0.70
2014,01,23,03,32,0.70
2014,01,23,03,33,0.70
2014,01,23,03,34,0.70
2014,01,23,03,35,0.70
2014,01,23,03,36,0.70
2014,01,23,03,37,0.60
2014,01,23,03,38,0.70
2014,01,23,03,39,0.60
2014,01,23,03,40,0.70
2014,01,23,03,41,0.60
2014,01,23,03,42,0.60
2014,01,23,03,43,0.60
2014,01,23,03,44,0.60
2014,01,23,03,45,0.60
2014,01,23,03,46,0.60
2014,01,23,03,47,0.60
2014,01,23,03,48,0.60
2014,01,23,03,49,0.60
2014,01,23,03,50,0.60
2014,01,23,03,51,0.60
2014,01,23,03,52,0.60
2014,01,23,03,53,0.60
2014,01,23,03,54,0.60
2014,01,23,03,55,0.60
2014,01,23,03,56,0.60
2014,01,23,03,57,0.60
2014,01,23,03,58,0.60
2014,01,23,03,59,0.60
2014,01,23,04,00,0.60
2014,01,23,04,01,0.60
2014,01,23,04,02,0.60
2014,01,23,04,03,0.60
2014,01,23,04,04,0.60
2014,01,23,04,05,0.60
2014,01,23,04,06,0.60
2014,01,23,04,07,0.60
2014,01,23,04,08,0.60
2014,01,23,04,09,0.60
2014,01,23,04,10,0.60
2014,01,23,04,11,0.60
2014,01,23,04,12,0.60
2014,01,23,04,13,0.60
2014,01,23,04,14,0.60
2014,01,23,04,15,0.60
2014,01,23,04,16,0.60
2014,01,23,04,17,0.60
2014,01,23,04,18,0.60
2014,01,23,04,19,0.50
2014,01,23,04,20,0.50
2014,01,23,04,21,0.50
2014,01,23,04,22,0.50
2014,01,23,04,23,0.50
2014,01,23,04,24,0.50
2014,01,23,04,25,0.50
2014,01,23,04,26,0.50
2014,01,23,04,27,0.50
2014,01,23,04,28,0.50
2014,01,23,04,29,0.40
2014,01,23,04,30,0.40
2014,01,23,04,31,0.40
2014,01,23,04,32,0.40
2014,01,23,04,33,0.40
2014,01,23,04,34,0.30
2014,01,23,04,35,0.30
2014,01,23,04,36,0.30
2014,01,23,04,37,0.30
2014,01,23,04,38,0.30
2014,01,23,04,39,0.30
2014,01,23,04,40,0.30
2014,01,23,04,41,0.30
2014,01,23,04,42,0.20
2014,01,23,04,43,0.20
2014,01,23,04,44,0.20
2014,01,23,04,45,0.20
2014,01,23,04,46,0.20
2014,01,23,04,47,0.20
2014,01,23,04,48,0.20
2014,01,23,04,49,0.20
2014,01,23,04,50,0.20
2014,01,23,04,51,0.20
2014,01,23,04,52,0.20
2014,01,23,04,53,0.20
2014,01,23,04,54,0.20
2014,01,23,04,55,0.20
2014,01,23,04,56,0.20
2014,01,23,04,57,0.20
2014,01,23,04,58,0.20
2014,01,23,04,59,0.20
2014,01,23,05,00,0.20
2014,01,23,05,01,0.10
2014,01,23,05,02,0.10
2014,01,23,05,03,0.10
2014,01,23,05,04,0.10
2014,01,23,05,05,0.10
2014,01,23,05,06,0.10
2014,01,23,05,07,0.10
2014,01,23,05,08,0.10
2014,01,23,05,09,0.10
2014,01,23,05,10,0.10
2014,01,23,05,11,0.10
2014,01,23,05,12,0.10
2014,01,23,05,13,0.10
2014,01,23,05,14,0.10
2014,01,23,05,15,0.10
2014,01,23,05,16,0.10
2014,01,23,05,17,0.10
2014,01,23,05,18,0.10
2014,01,23,05,19,0.10
2014,01,23,05,20,0.10
2014,01,23,05,21,0.00
2014,01,23,05,22,0.00
2014,01,23,05,23,0.00
2014,01,23,05,24,0.00
2014,01,23,05,25,0.00
2014,01,23,05,26,-0.10
2014,01,23,05,27,-0.10
2014,01,23,05,28,-0.10
2014,01,23,05,29,-0.10
2014,01,23,05,30,-0.10
2014,01,23,05,31,-0.10
2014,01,23,05,32,-0.20
2014,01,23,05,33,-0.20
2014,01,23,05,34,-0.20
2014,01,23,05,35,-0.20
2014,01,23,05,36,-0.20
2014,01,23,05,37,-0.20
2014,01,23,05,38,-0.20
2014,01,23,05,39,-0.20
2014,01,23,05,40,-0.20
2014,01,23,05,41,-0.20
2014,01,23,05,42,-0.20
2014,01,23,05,43,-0.20
2014,01,23,05,44,-0.20
2014,01,23,05,45,-0.20
2014,01,23,05,46,-0.20
2014,01,23,05,47,-0.20
2014,01,23,05,48,-0.20
2014,01,23,05,49,-0.20
2014,01,23,05,50,-0.30
2014,01,23,05,51,-0.30
2014,01,23,05,52,-0.30
2014,01,23,05,53,-0.30
2014,01,23,05,54,-0.30
2014,01,23,05,55,-0.30
2014,01,23,05,56,-0.30
2014,01,23,05,57,-0.30
2014,01,23,05,58,-0.30
2014,01,23,05,59,-0.30
2014,01,23,06,00,-0.30
2014,01,23,06,01,-0.30
2014,01,23,06,02,-0.30
2014,01,23,06,03,-0.30
2014,01,23,06,04,-0.30
2014,01,23,06,05,-0.30
2014,01,23,06,06,-0.30
2014,01,23,06,07,-0.30
2014,01,23,06,08,-0.30
2014,01,23,06,09,-0.30
2014,01,23,06,10,-0.40
2014,01,23,06,11,-0.40
2014,01,23,06,12,-0.40
2014,01,23,06,13,-0.40
2014,01,23,06,14,-0.40
2014,01,23,06,15,-0.40
2014,01,23,06,16,-0.40
2014,01,23,06,17,-0.40
2014,01,23,06,18,-0.40
2014,01,23,06,19,-0.40
2014,01,23,06,20,-0.40
2014,01,23,06,21,-0.40
2014,01,23,06,22,-0.40
2014,01,23,06,23,-0.40
2014,01,23,09,12,-0.30
2014,01,23,09,13,-0.30
2014,01,23,09,14,-0.30
2014,01,23,09,15,-0.30
2014,01,23,09,16,-0.30
2014,01,23,09,17,-0.30
2014,01,23,09,18,-0.30
2014,01,23,09,19,-0.30
2014,01,23,09,20,-0.30
2014,01,23,09,21,-0.30
2014,01,23,09,22,-0.30
2014,01,23,09,23,-0.30
2014,01,23,09,24,-0.20
2014,01,23,09,25,-0.20
2014,01,23,09,26,-0.20
2014,01,23,09,27,-0.20
2014,01,23,09,28,-0.20
2014,01,23,09,29,-0.20
2014,01,23,09,30,-0.10
2014,01,23,09,31,-0.10
2014,01,23,09,32,-0.10
2014,01,23,09,33,-0.10
2014,01,23,09,34,-0.10
2014,01,23,09,35,0.00
2014,01,23,09,36,0.00
2014,01,23,09,37,0.00
2014,01,23,09,38,0.10
2014,01,23,09,39,0.10
2014,01,23,09,40,0.10
2014,01,23,09,41,0.10
2014,01,23,09,42,0.10
2014,01,23,09,43,0.10
2014,01,23,09,44,0.10
2014,01,23,09,45,0.00
2014,01,23,09,46,0.00
2014,01,23,09,47,0.00
2014,01,23,09,48,0.00
2014,01,23,09,49,0.00
2014,01,23,09,50,0.00
2014,01,23,09,51,0.00
2014,01,23,09,52,0.10
2014,01,23,09,53,0.10
2014,01,23,09,54,0.10
2014,01,23,09,55,0.10
2014,01,23,09,56,0.10
2014,01,23,09,57,0.10
2014,01,23,09,58,0.10
2014,01,23,09,59,0.10
2014,01,23,10,00,0.20
2014,01,23,10,01,0.20
2014,01,23,10,02,0.10
2014,01,23,10,03,0.10
2014,01,23,10,04,0.10
2014,01,23,10,05,0.10
2014,01,23,10,06,0.10
2014,01,23,10,07,0.20
2014,01,23,10,08,0.20
2014,01,23,10,09,0.20
2014,01,23,10,10,0.20
2014,01,23,10,11,0.20
2014,01,23,10,12,0.20
2014,01,23,10,13,0.20
2014,01,23,10,14,0.20
2014,01,23,10,15,0.20
2014,01,23,10,16,0.20
2014,01,23,10,17,0.30
2014,01,23,10,18,0.30
2014,01,23,10,19,0.30
2014,01,23,10,20,0.30
2014,01,23,10,21,0.30
2014,01,23,10,22,0.30
2014,01,23,10,23,0.30
2014,01,23,10,24,0.30
2014,01,23,10,25,0.30
2014,01,23,10,26,0.30
2014,01,23,10,27,0.30
2014,01,23,10,28,0.30
2014,01,23,10,29,0.30
2014,01,23,10,30,0.30
2014,01,23,10,31,0.30
2014,01,23,10,32,0.30
2014,01,23,10,33,0.40
2014,01,23,10,34,0.40
2014,01,23,10,35,0.40
2014,01,23,10,36,0.40
2014,01,23,10,37,0.40
2014,01,23,10,38,0.40
2014,01,23,10,39,0.40
2014,01,23,10,40,0.40
2014,01,23,10,41,0.40
2014,01,23,10,42,0.50
2014,01,23,10,43,0.50
2014,01,23,10,44,0.50
2014,01,23,10,45,0.60
2014,01,23,10,46,0.60
2014,01,23,10,47,0.60
2014,01,23,10,48,0.70
2014,01,23,10,49,0.70
2014,01,23,10,50,0.70
2014,01,23,10,51,0.70
2014,01,23,10,52,0.70
2014,01,23,10,53,0.70
2014,01,23,10,54,0.70
2014,01,23,10,55,0.70
2014,01,23,10,56,0.70
2014,01,23,10,57,0.70
2014,01,23,10,58,0.70
2014,01,23,10,59,0.70
2014,01,23,11,00,0.70
2014,01,23,11,01,0.70
2014,01,23,11,02,0.70
2014,01,23,11,03,0.70
2014,01,23,11,04,0.80
2014,01,23,11,05,0.80
2014,01,23,11,06,0.80
2014,01,23,11,07,0.80
2014,01,23,11,08,0.80
2014,01,23,11,09,0.80
2014,01,23,11,10,0.80
2014,01,23,11,11,0.80
2014,01,23,11,12,0.80
2014,01,23,11,13,0.80
2014,01,23,11,14,0.80
2014,01,23,11,15,0.80
2014,01,23,11,16,0.90
2014,01,23,11,17,0.90
2014,01,23,11,18,0.90
2014,01,23,11,19,1.00
2014,01,23,11,20,1.00
2014,01,23,11,21,1.00
2014,01,23,11,22,1.10
2014,01,23,11,23,1.10
2014,01,23,11,24,1.10
2014,01,23,11,25,1.10
2014,01,23,11,26,1.10
2014,01,23,11,27,1.10
2014,01,23,11,28,1.20
2014,01,23,11,29,1.20
2014,01,23,11,30,1.20
2014,01,23,11,31,1.30
2014,01,23,11,32,1.30
2014,01,23,11,33,1.30
2014,01,23,11,34,1.30
2014,01,23,11,35,1.30
2014,01,23,11,36,1.30
2014,01,23,11,37,1.30
2014,01,23,11,38,1.30
2014,01,23,11,39,1.30
2014,01,23,11,40,1.40
2014,01,23,11,41,1.40
2014,01,23,11,42,1.50
2014,01,23,11,43,1.50
2014,01,23,11,44,1.60
2014,01,23,11,45,1.60
2014,01,23,11,46,1.70
2014,01,23,11,47,1.70
2014,01,23,11,48,1.70
2014,01,23,11,49,1.70
2014,01,23,11,50,1.70
2014,01,23,11,51,1.70
2014,01,23,11,52,1.70
2014,01,23,11,53,1.70
2014,01,23,11,54,1.80
2014,01,23,11,55,1.80
2014,01,23,11,56,1.70
2014,01,23,11,57,1.70
2014,01,23,11,58,1.70
2014,01,23,11,59,1.70
2014,01,23,12,00,1.60
2014,01,23,12,01,1.60
2014,01,23,12,02,1.60
2014,01,23,12,03,1.60
2014,01,23,12,04,1.70
2014,01,23,12,05,1.70
2014,01,23,12,06,1.70
2014,01,23,12,07,1.70
2014,01,23,12,08,1.70
2014,01,23,12,09,1.70
2014,01,23,12,10,1.80
2014,01,23,12,11,1.80
2014,01,23,12,12,1.80
2014,01,23,12,13,1.80
2014,01,23,12,14,1.80
2014,01,23,12,15,1.80
2014,01,23,12,16,1.80
2014,01,23,12,17,1.80
2014,01,23,12,18,1.80
2014,01,23,12,19,1.80
2014,01,23,12,20,1.80
2014,01,23,12,21,1.80
2014,01,23,12,22,1.90
2014,01,23,12,23,1.90
2014,01,23,12,24,1.90
2014,01,23,12,25,1.90
2014,01,23,12,26,2.00
2014,01,23,12,27,2.00
2014,01,23,12,28,2.00
2014,01,23,12,29,2.00
2014,01,23,12,30,2.00
2014,01,23,12,31,2.00
2014,01,23,12,32,2.00
2014,01,23,12,33,2.00
2014,01,23,12,34,2.00
2014,01,23,12,35,2.00
2014,01,23,12,36,2.10
2014,01,23,12,37,2.10
2014,01,23,12,38,2.10
2014,01,23,12,39,2.20
2014,01,23,12,40,2.30
2014,01,23,12,41,2.30
2014,01,23,12,42,2.30
2014,01,23,12,43,2.40
2014,01,23,12,44,2.40
2014,01,23,12,45,2.50
2014,01,23,12,46,2.60
2014,01,23,12,47,2.70
2014,01,23,12,48,2.70
2014,01,23,12,49,2.70
2014,01,23,12,50,2.70
2014,01,23,12,51,2.70
2014,01,23,12,52,2.80
2014,01,23,12,53,2.80
2014,01,23,12,54,2.80
2014,01,23,12,55,2.80
2014,01,23,12,56,2.80
2014,01,23,12,57,2.80
2014,01,23,12,58,2.80
2014,01,23,12,59,2.80
2014,01,23,13,00,2.80
2014,01,23,13,01,2.80
2014,01,23,13,02,2.90
2014,01,23,13,03,2.90
2014,01,23,13,04,3.00
2014,01,23,13,05,3.00
2014,01,23,13,06,3.10
2014,01,23,13,07,3.10
2014,01,23,13,08,3.20
2014,01,23,13,09,3.20
2014,01,23,13,10,3.30
2014,01,23,13,11,3.30
2014,01,23,13,12,3.30
2014,01,23,13,13,3.30
2014,01,23,13,14,3.30
2014,01,23,13,15,3.30
2014,01,23,13,16,3.30
2014,01,23,13,17,3.40
2014,01,23,13,18,3.40
2014,01,23,13,19,3.50
2014,01,23,13,20,3.50
2014,01,23,13,21,3.60
2014,01,23,13,22,3.70
2014,01,23,13,23,3.80
2014,01,23,13,24,3.90
2014,01,23,13,25,3.90
2014,01,23,13,26,4.00
2014,01,23,13,27,4.10
2014,01,23,13,28,4.10
2014,01,23,13,29,4.10
2014,01,23,13,30,4.10
2014,01,23,13,31,4.10
2014,01,23,13,32,4.20
2014,01,23,13,33,4.20
2014,01,23,13,34,4.20
2014,01,23,13,35,4.20
2014,01,23,13,36,4.20
2014,01,23,13,37,4.20
2014,01,23,13,38,4.20
2014,01,23,13,39,4.30
2014,01,23,13,40,4.30
2014,01,23,13,41,4.30
2014,01,23,13,42,4.40
2014,01,23,13,43,4.50
2014,01,23,13,44,4.50
2014,01,23,13,45,4.60
2014,01,23,13,46,4.60
2014,01,23,13,47,4.60
2014,01,23,13,48,4.60
2014,01,23,13,49,4.70
2014,01,23,13,50,4.70
2014,01,23,13,51,4.80
2014,01,23,13,52,4.80
2014,01,23,13,53,4.90
2014,01,23,13,54,4.90
2014,01,23,13,55,5.00
2014,01,23,13,56,5.00
2014,01,23,13,57,5.00
2014,01,23,13,58,5.10
2014,01,23,13,59,5.00
2014,01,23,14,00,5.00
2014,01,23,14,01,5.00
2014,01,23,14,02,5.00
2014,01,23,14,03,5.10
2014,01,23,14,04,5.10
2014,01,23,14,05,5.10
2014,01,23,14,06,5.20
2014,01,23,14,07,5.30
2014,01,23,14,08,5.30
2014,01,23,14,09,5.40
2014,01,23,14,10,5.50
2014,01,23,14,11,5.50
2014,01,23,14,12,5.50
2014,01,23,14,13,5.50
2014,01,23,14,14,5.50
2014,01,23,14,15,5.60
2014,01,23,14,16,5.60
2014,01,23,14,17,5.70
2014,01,23,14,18,5.60
2014,01,23,14,19,5.60
2014,01,23,14,20,5.60
2014,01,23,14,21,5.60
2014,01,23,14,22,5.60
2014,01,23,14,23,5.60
2014,01,23,14,24,5.60
2014,01,23,14,25,5.70
2014,01,23,14,26,5.70
2014,01,23,14,27,5.80
2014,01,23,14,28,5.80
2014,01,23,14,29,5.90
2014,01,23,14,30,5.90
2014,01,23,14,31,6.00
2014,01,23,14,32,6.00
2014,01,23,14,33,6.10
2014,01,23,14,34,6.10
2014,01,23,14,35,6.20
2014,01,23,14,36,6.30
2014,01,23,14,37,6.40
2014,01,23,14,38,6.40
2014,01,23,14,39,6.50
2014,01,23,14,40,6.60
2014,01,23,14,41,6.70
2014,01,23,14,42,6.70
2014,01,23,14,43,6.80
2014,01,23,14,44,6.80
2014,01,23,14,45,6.90
2014,01,23,14,46,7.00
2014,01,23,14,47,7.00
2014,01,23,14,48,7.10
2014,01,23,14,49,7.10
2014,01,23,14,50,7.10
2014,01,23,14,51,7.20
2014,01,23,14,52,7.20
2014,01,23,14,53,7.30
2014,01,23,14,54,7.30
2014,01,23,14,55,7.40
2014,01,23,14,56,7.40
2014,01,23,14,57,7.50
2014,01,23,14,58,7.50
2014,01,23,14,59,7.60
2014,01,23,15,00,7.60
2014,01,23,15,01,7.70
2014,01,23,15,02,7.70
2014,01,23,15,03,7.70
2014,01,23,15,04,7.70
2014,01,23,15,05,7.70
2014,01,23,15,06,7.70
2014,01,23,15,07,7.70
2014,01,23,15,08,7.70
2014,01,23,15,09,7.70
2014,01,23,15,10,7.70
2014,01,23,15,11,7.70
2014,01,23,15,12,7.70
2014,01,23,15,13,7.70
2014,01,23,15,14,7.70
2014,01,23,15,15,7.70
2014,01,23,15,16,7.70
2014,01,23,15,17,7.70
2014,01,23,15,18,7.70
2014,01,23,15,19,7.70
2014,01,23,15,20,7.70
2014,01,23,15,21,7.70
2014,01,23,15,22,7.70
2014,01,23,15,23,7.70
2014,01,23,15,24,7.80
2014,01,23,15,25,7.80
2014,01,23,15,26,7.80
2014,01,23,15,27,7.70
2014,01,23,15,28,7.70
2014,01,23,15,29,7.70
2014,01,23,15,30,7.70
2014,01,23,15,31,7.70
2014,01,23,15,32,7.60
2014,01,23,15,33,7.60
2014,01,23,15,34,7.60
2014,01,23,15,35,7.60
2014,01,23,15,36,7.60
2014,01,23,15,37,7.60
2014,01,23,15,38,7.60
2014,01,23,15,39,7.50
2014,01,23,15,40,7.50
2014,01,23,15,41,7.50
2014,01,23,15,42,7.40
2014,01,23,15,43,7.40
2014,01,23,15,44,7.30
2014,01,23,15,45,7.30
2014,01,23,15,46,7.30
2014,01,23,15,47,7.20
2014,01,23,15,48,7.20
2014,01,23,15,49,7.20
2014,01,23,15,50,7.20
2014,01,23,15,51,7.20
2014,01,23,15,52,7.20
2014,01,23,15,53,7.20
2014,01,23,15,54,7.20
2014,01,23,15,55,7.20
2014,01,23,15,56,7.20
2014,01,23,15,57,7.20
2014,01,23,15,58,7.20
2014,01,23,15,59,7.20
2014,01,23,16,00,7.20
2014,01,23,16,01,7.10
2014,01,23,16,02,7.10
2014,01,23,16,03,7.10
2014,01,23,16,04,7.10
2014,01,23,16,05,7.10
2014,01,23,16,06,7.00
2014,01,23,16,07,7.00
2014,01,23,16,08,7.00
2014,01,23,16,09,7.00
2014,01,23,16,10,7.00
2014,01,23,16,11,6.90
2014,01,23,16,12,6.90
2014,01,23,16,13,6.90
2014,01,23,16,14,6.90
2014,01,23,16,15,6.90
2014,01,23,16,16,6.90
2014,01,23,16,17,6.80
2014,01,23,16,18,6.80
2014,01,23,16,19,6.80
2014,01,23,16,20,6.80
2014,01,23,16,21,6.70
2014,01,23,16,22,6.70
2014,01,23,16,23,6.60
2014,01,23,16,24,6.60
2014,01,23,16,25,6.60
2014,01,23,16,26,6.50
2014,01,23,16,27,6.50
2014,01,23,16,28,6.40
2014,01,23,16,29,6.40
2014,01,23,16,30,6.30
2014,01,23,16,31,6.30
2014,01,23,16,32,6.30
2014,01,23,16,33,6.30
2014,01,23,16,34,6.20
2014,01,23,16,35,6.20
2014,01,23,16,36,6.20
2014,01,23,16,37,6.10
2014,01,23,16,38,6.10
2014,01,23,16,39,6.00
2014,01,23,16,40,6.00
2014,01,23,16,41,6.00
2014,01,23,16,42,5.90
2014,01,23,16,43,6.00
2014,01,23,16,44,6.00
2014,01,23,16,45,5.90
2014,01,23,16,46,5.90
2014,01,23,16,47,5.90
2014,01,23,16,48,5.90
2014,01,23,16,49,5.80
2014,01,23,16,50,5.80
2014,01,23,16,51,5.70
2014,01,23,16,52,5.70
2014,01,23,16,53,5.60
2014,01,23,16,54,5.50
2014,01,23,16,55,5.50
2014,01,23,16,56,5.40
2014,01,23,16,57,5.40
2014,01,23,16,58,5.30
2014,01,23,16,59,5.30
2014,01,23,17,00,5.20
2014,01,23,17,01,5.20
2014,01,23,17,02,5.10
2014,01,23,17,03,5.10
2014,01,23,17,04,5.00
2014,01,23,17,05,5.00
2014,01,23,17,06,4.90
2014,01,23,17,07,4.80
2014,01,23,17,08,4.80
2014,01,23,17,09,4.70
2014,01,23,17,10,4.70
2014,01,23,17,11,4.60
2014,01,23,17,12,4.60
2014,01,23,17,13,4.50
2014,01,23,17,14,4.50
2014,01,23,17,15,4.40
2014,01,23,17,16,4.40
2014,01,23,17,17,4.30
2014,01,23,17,18,4.30
2014,01,23,17,19,4.20
2014,01,23,17,20,4.20
2014,01,23,17,21,4.10
2014,01,23,17,22,4.10
2014,01,23,17,23,4.10
2014,01,23,17,24,4.10
2014,01,23,17,25,4.00
2014,01,23,17,26,4.00
2014,01,23,17,27,3.90
2014,01,23,17,28,3.90
2014,01,23,17,29,3.90
2014,01,23,17,30,3.80
2014,01,23,17,31,3.80
2014,01,23,17,32,3.80
2014,01,23,17,33,3.80
2014,01,23,17,34,3.70
2014,01,23,17,35,3.70
2014,01,23,17,36,3.70
2014,01,23,17,37,3.70
2014,01,23,17,38,3.60
2014,01,23,17,39,3.60
2014,01,23,17,40,3.60
2014,01,23,17,41,3.50
2014,01,23,17,42,3.50
2014,01,23,17,43,3.50
2014,01,23,17,44,3.40
2014,01,23,17,45,3.40
2014,01,23,17,46,3.30
2014,01,23,17,47,3.30
2014,01,23,17,48,3.30
2014,01,23,17,49,3.30
2014,01,23,17,50,3.20
2014,01,23,17,51,3.20
2014,01,23,17,52,3.20
2014,01,23,17,53,3.10
2014,01,23,17,54,3.10
2014,01,23,17,55,3.10
2014,01,23,17,56,3.00
2014,01,23,17,57,3.00
2014,01,23,17,58,2.90
2014,01,23,17,59,2.90
2014,01,23,18,00,2.90
2014,01,23,18,01,2.90
2014,01,23,18,02,2.80
2014,01,23,18,03,2.80
2014,01,23,18,04,2.80
2014,01,23,18,05,2.80
2014,01,23,18,06,2.80
2014,01,23,18,07,2.70
2014,01,23,18,08,2.70
2014,01,23,18,09,2.70
2014,01,23,18,10,2.70
2014,01,23,18,11,2.70
2014,01,23,18,12,2.70
2014,01,23,18,13,2.60
2014,01,23,18,14,2.60
2014,01,23,18,15,2.60
2014,01,23,18,16,2.60
2014,01,23,18,17,2.60
2014,01,23,18,18,2.60
2014,01,23,18,19,2.50
2014,01,23,18,20,2.50
2014,01,23,18,21,2.50
2014,01,23,18,22,2.40
2014,01,23,18,23,2.40
2014,01,23,18,24,2.40
2014,01,23,18,25,2.40
2014,01,23,18,26,2.40
2014,01,23,18,27,2.40
2014,01,23,18,28,2.30
2014,01,23,18,29,2.30
2014,01,23,18,30,2.30
2014,01,23,18,31,2.30
2014,01,23,18,32,2.30
2014,01,23,18,33,2.30
2014,01,23,18,34,2.30
2014,01,23,18,35,2.30
2014,01,23,18,36,2.20
2014,01,23,18,37,2.30
2014,01,23,18,38,2.20
2014,01,23,18,39,2.20
2014,01,23,18,40,2.20
2014,01,23,18,41,2.20
2014,01,23,18,42,2.20
2014,01,23,18,43,2.20
2014,01,23,18,44,2.20
2014,01,23,18,45,2.20
2014,01,23,18,46,2.10
2014,01,23,18,47,2.10
2014,01,23,18,48,2.10
2014,01,23,18,49,2.10
2014,01,23,18,50,2.10
2014,01,23,18,51,2.00
2014,01,23,18,52,2.00
2014,01,23,18,53,2.00
2014,01,23,18,54,2.00
2014,01,23,18,55,1.90
2014,01,23,18,56,1.90
2014,01,23,18,57,1.90
2014,01,23,18,58,1.90
2014,01,23,18,59,1.90
2014,01,23,19,00,1.90
2014,01,23,19,01,1.90
2014,01,23,19,02,1.80
2014,01,23,19,03,1.80
2014,01,23,19,04,1.80
2014,01,23,19,05,1.80
2014,01,23,19,06,1.80
2014,01,23,19,07,1.80
2014,01,23,19,08,1.80
2014,01,23,19,09,1.80
2014,01,23,19,10,1.80
2014,01,23,19,11,1.80
2014,01,23,19,12,1.70
2014,01,23,19,13,1.70
2014,01,23,19,14,1.70
2014,01,23,19,15,1.70
2014,01,23,19,16,1.70
2014,01,23,19,17,1.60
2014,01,23,19,18,1.60
2014,01,23,19,19,1.60
2014,01,23,19,20,1.60
2014,01,23,19,21,1.50
2014,01,23,19,22,1.50
2014,01,23,19,23,1.40
2014,01,23,19,24,1.40
2014,01,23,19,25,1.40
2014,01,23,19,26,1.40
2014,01,23,19,27,1.30
2014,01,23,19,28,1.30
2014,01,23,19,29,1.30
2014,01,23,19,30,1.30
2014,01,23,19,31,1.30
2014,01,23,19,32,1.30
2014,01,23,19,33,1.30
2014,01,23,19,34,1.30
2014,01,23,19,35,1.30
2014,01,23,19,36,1.30
2014,01,23,19,37,1.30
2014,01,23,19,38,1.30
2014,01,23,19,39,1.30
2014,01,23,19,40,1.30
2014,01,23,19,41,1.30
2014,01,23,19,42,1.30
2014,01,23,19,43,1.20
2014,01,23,19,44,1.20
2014,01,23,19,45,1.20
2014,01,23,19,46,1.20
2014,01,23,19,47,1.20
2014,01,23,19,48,1.10
2014,01,23,19,49,1.10
2014,01,23,19,50,1.10
2014,01,23,19,51,1.10
2014,01,23,19,52,1.10
2014,01,23,19,53,1.10
2014,01,23,19,54,1.00
2014,01,23,19,55,1.00
2014,01,23,19,56,1.00
2014,01,23,19,57,1.00
2014,01,23,19,58,0.90
2014,01,23,19,59,0.90
2014,01,23,20,00,0.90
2014,01,23,20,01,0.90
2014,01,23,20,02,0.90
2014,01,23,20,03,0.90
2014,01,23,20,04,0.90
2014,01,23,20,05,0.90
2014,01,23,20,06,0.80
2014,01,23,20,07,0.80
2014,01,23,20,08,0.80
2014,01,23,20,09,0.80
2014,01,23,20,10,0.80
2014,01,23,20,11,0.80
2014,01,23,20,12,0.70
2014,01,23,20,13,0.70
2014,01,23,20,14,0.70
2014,01,23,20,15,0.70
2014,01,23,20,16,0.70
2014,01,23,20,17,0.70
2014,01,23,20,18,0.70
2014,01,23,20,19,0.70
2014,01,23,20,20,0.60
2014,01,23,20,21,0.60
2014,01,23,20,22,0.60
2014,01,23,20,23,0.60
2014,01,23,20,24,0.60
2014,01,23,20,25,0.60
2014,01,23,20,26,0.60
2014,01,23,20,27,0.60
2014,01,23,20,28,0.60
2014,01,23,20,29,0.60
2014,01,23,20,30,0.60
2014,01,23,20,31,0.60
2014,01,23,20,32,0.60
2014,01,23,20,33,0.60
2014,01,23,20,34,0.60
2014,01,23,20,35,0.60
2014,01,23,20,36,0.60
2014,01,23,20,37,0.50
2014,01,23,20,38,0.50
2014,01,23,20,39,0.50
2014,01,23,20,40,0.50
2014,01,23,20,41,0.40
2014,01,23,20,42,0.40
2014,01,23,20,43,0.40
2014,01,23,20,44,0.40
2014,01,23,20,45,0.40
2014,01,23,20,46,0.40
2014,01,23,20,47,0.40
2014,01,23,20,48,0.30
2014,01,23,20,49,0.30
2014,01,23,20,50,0.30
2014,01,23,20,51,0.30